Starlink 36035

operational
NORAD ID: 67082 Int'l Des: 2025-298 Owner: SPXS Country: US Constellation: starlink
LEOCIRCULAR

Über Starlink 36035

Beschreibung wird geladen...

Live-Position

3D-Globus wird geladen...

Nächste Überflüge

Höhenverlauf

Altitude vs Time

uPlot chart will show altitude changes over time

Zweizeiliger Elementsatz

1 67082C 25298H 25349.42270833 -.00792240 00000+0 -12015-2 0 3496
2 67082 70.0021 243.0124 0005835 273.7522 186.6831 16.05067299 19
Epoch: 15. Dez. 2025 • Age: 67 hours

Aktueller Status

Höhe 273.4 km
Geschwindigkeit 7.74 km/s
Subsatellitenpunkt 18.72°N, 32.83°E
Startdatum 14. Dez. 2025
Alter 3 days
Typ internet

Technische Details

Klassifizierung Payload
Masse 575.00 kg
Trockenmasse 530.00 kg
Gesamtmasse 575.00 kg
Länge 0.30 m
Durchmesser 4.10 m
Spannweite 29.00 m
Form Box + pan
Hersteller SPXS
Bus-Typ Starlink V2MO
Phasenstatus In Orbit
Besitzer/Staat SPXS/US

Große Konstellationen

Loading constellations...